Location: Habighorst
(52.7089°N, 10.2278°E)
Time: 08:52:43
(UTC+00:00)

Nadezhda 3 Rocket - Pass Details

Date: 13 January 2026
Orbit: 956 x 997 km, 82.9° (Epoch: 18 February)

Event Time Altitude Azimuth Distance (km) Brightness Sun altitude
Rises 05:03:59 0° 349° (N) 3,668 6.8 -20.5°
Reaches altitude 10° 05:06:29 10° 351° (N) 2,722 6.1 -20.1°
Maximum altitude 05:12:45 82° 78° (ENE) 993 4.1 -19.1°
Drops below altitude 10° 05:19:02 10° 168° (SSE) 2,733 6.6 -18.2°
Sets 05:21:33 0° 169° (S) 3,682 7.3 -17.8°
